EDT,Max TemperatureF,Mean TemperatureF,Min TemperatureF,Max Dew PointF,MeanDew PointF,Min DewpointF,Max Humidity, Mean Humidity, Min Humidity, Max Sea Level PressureIn, Mean Sea Level PressureIn, Min Sea Level PressureIn, Max VisibilityMiles, Mean VisibilityMiles, Min VisibilityMiles, Max Wind SpeedMPH, Mean Wind SpeedMPH, Max Gust SpeedMPH,PrecipitationIn, CloudCover, Events, WindDirDegrees
2013-10-1,78,67,55,59,56,55,100,75,50,30.10,30.05,30.00,10,9,5,17,5,22,0.00,4,,260
2013-10-2,80,68,56,61,58,54,93,71,48,30.12,30.07,30.04,10,10,8,17,6,23,0.00,2,,256
2013-10-3,78,67,56,63,61,57,100,79,58,30.17,30.12,30.06,10,5,0,10,3,17,0.00,1,Fog,196
2013-10-4,83,72,61,66,62,60,100,74,47,30.13,30.09,30.04,10,8,3,14,5,17,0.06,4,Rain,257
2013-10-5,83,73,62,67,64,62,100,76,51,30.14,30.09,30.02,10,5,0,13,2,16,0.01,3,Fog,223
2013-10-6,87,75,62,66,62,56,100,69,37,30.04,29.98,29.85,10,4,0,20,8,31,0.00,1,Fog,187
2013-10-7,71,60,49,65,54,41,93,73,53,30.10,29.86,29.73,10,7,0,24,11,32,0.80,5,Fog-Rain,262
2013-10-8,66,55,43,47,44,41,92,68,43,30.34,30.27,30.11,10,10,10,16,4,22,0.00,2,,23
2013-10-9,61,51,41,44,41,37,93,68,42,30.39,30.34,30.29,10,10,10,10,4,15,0.00,0,,68
2013-10-10,56,51,45,49,45,41,93,80,66,30.29,30.21,30.12,10,9,6,8,3,12,0.46,5,Rain,48
2013-10-11,57,53,49,54,51,48,100,95,89,30.12,30.09,30.06,10,4,1,13,5,16,1.83,8,Rain,46
2013-10-12,72,64,55,57,54,48,93,75,56,30.23,30.15,30.09,10,10,10,13,6,16,0.00,8,,64
2013-10-13,62,59,55,56,55,49,100,82,64,30.34,30.31,30.22,10,5,1,10,3,14,0.21,8,Rain,76
2013-10-14,62,58,54,56,54,51,93,86,78,30.35,30.31,30.26,10,10,6,7,2,10,0.00,8,,152
2013-10-15,70,62,53,55,53,47,100,76,52,30.27,30.18,30.07,10,9,5,12,3,14,0.00,4,,180
2013-10-16,64,58,52,57,52,46,90,79,67,30.07,29.98,29.91,10,10,10,12,3,15,T,3,Rain,191
2013-10-17,64,58,52,61,56,51,97,85,72,29.93,29.82,29.68,10,9,1,25,5,33,0.27,8,Rain,243
2013-10-18,61,53,45,42,40,38,83,63,42,30.03,29.95,29.87,10,10,10,17,10,25,0.00,5,Rain,266
2013-10-19,53,45,37,49,42,37,92,82,71,30.00,29.89,29.80,10,9,2,28,6,36,0.03,5,Rain,242
2013-10-20,60,50,39,37,36,35,85,76,66,30.07,29.99,29.91,10,10,10,17,9,31,0.00,4,,254
2013-10-21,64,51,37,41,39,34,85,62,39,30.10,30.02,29.90,10,10,10,14,5,18,0.00,1,,198
2013-10-22,54,46,37,43,36,27,79,59,38,29.92,29.88,29.83,10,10,9,20,7,24,T,4,,280
2013-10-23,44,41,38,37,35,32,86,80,73,29.91,29.79,29.71,10,9,4,17,6,23,0.06,8,Rain,302
2013-10-24,45,40,34,35,31,26,92,71,49,30.13,29.99,29.89,10,10,7,22,8,29,0.01,6,Rain-Snow,268
2013-10-25,45,39,32,33,30,28,82,70,57,30.30,30.23,30.10,10,10,10,20,9,26,0.00,4,,268
2013-10-26,53,42,31,30,26,21,85,58,30,30.27,30.08,29.92,10,10,10,25,13,32,0.00,3,,225
2013-10-27,51,43,34,34,31,28,85,64,42,30.15,30.05,29.95,10,10,10,22,8,29,0.00,3,,278
2013-10-28,59,44,29,34,30,27,85,62,38,30.30,30.23,30.15,10,10,4,9,2,13,0.00,0,,256
2013-10-29,58,51,43,39,36,32,96,72,47,30.41,30.33,30.29,10,10,6,5,1,,0.00,2,,94
2013-10-30,66,53,39,50,44,37,89,73,56,30.28,30.21,30.15,10,9,5,10,3,14,0.00,4,,176
2013-10-31,64,60,55,58,54,50,100,89,77,30.14,29.97,29.65,10,8,4,26,8,38,0.19,8,Rain,191